Sumter, SC

7:48 AM EDT on April 27, 2017 (GMT -0400)
Sumter Municipal

Weather History for KSMS - October, 2012

Change the Weather History Date:

Thursday, October 4, 2012

  Actual Average Record
Temperature  
Mean Temperature 70 °F -  
Max Temperature 77 °F 80 °F 86 °F (2013)
Min Temperature 64 °F 54 °F 44 °F (2011)
Cooling Degree Days 6    
Growing Degree Days 20 (Base 50)    
Moisture  
Dew Point 69 °F    
Average Humidity 95    
Maximum Humidity 100    
Minimum Humidity 69    
Precipitation  
Precipitation 0.24 in - - ()
Sea Level Pressure  
Sea Level Pressure 30.22 in    
Wind  
Wind Speed 1 mph (NW)    
Max Wind Speed 8 mph    
Max Gust Speed -    
Visibility 8 miles    
Events Rain    
Averages and records for this station are not official NWS values.
T = Trace of Precipitation, MM = Missing Value Source: NWS Daily Summary

Daily Weather History Graph

Daily Weather History Graph

Search for Another Location

Airport or City:

Trip Planner

Search our weather history database for the weather conditions in past years. The results will help you decide how hot, cold, wet, or windy it might be!

Date:

Astronomy

Oct. 04, 2012 Rise Set
Actual Time 7:18 AM EDT 7:00 PM EDT
Civil Twilight 6:53 AM EDT 7:25 PM EDT
Nautical Twilight 6:24 AM EDT 7:54 PM EDT
Astronomical Twilight 5:55 AM EDT 8:23 PM EDT
Moon 9:47 PM EDT (10/4) 11:21 AM EDT (10/4)
Length of Visible Light 12h 32m
Length of Day
11h 42m
Waning Gibbous, 82% of the Moon is Illuminated
Oct 4
Waning Gibbous
Oct 8
Last Quarter
Oct 15
New
Oct 21
First Quarter
Oct 29
Full

Hourly Weather History & Observations

Time (EDT) Temp. Dew Point Humidity Pressure Visibility Wind Dir Wind Speed Gust Speed Precip Events Conditions
12:15 AM 71.6 °F 71.6 °F 100% 30.21 in 10.0 mi Calm Calm - N/A   Clear
12:35 AM 71.6 °F 71.6 °F 100% 30.21 in 10.0 mi Calm Calm - N/A   Scattered Clouds
12:55 AM 71.6 °F 71.6 °F 100% 30.21 in 10.0 mi Calm Calm - N/A   Mostly Cloudy
1:15 AM 71.6 °F 71.6 °F 100% 30.21 in 9.0 mi Calm Calm - N/A Rain Light Rain
1:35 AM 71.6 °F 71.6 °F 100% 30.21 in 7.0 mi Calm Calm - N/A Rain Light Rain
1:55 AM 71.6 °F 71.6 °F 100% 30.21 in 6.0 mi Calm Calm - N/A Rain Light Rain
2:15 AM 71.6 °F 71.6 °F 100% 30.20 in 6.0 mi Calm Calm - N/A Rain Light Rain
2:35 AM 69.8 °F 69.8 °F 100% 30.20 in 6.0 mi Calm Calm - N/A   Scattered Clouds
2:55 AM 71.6 °F 71.6 °F 100% 30.21 in 8.0 mi Calm Calm - N/A   Mostly Cloudy
3:15 AM 69.8 °F 69.8 °F 100% 30.21 in 9.0 mi Calm Calm - N/A   Mostly Cloudy
3:35 AM 69.8 °F 69.8 °F 100% 30.21 in 10.0 mi Calm Calm - N/A   Scattered Clouds
3:55 AM 69.8 °F 69.8 °F 100% 30.21 in 9.0 mi Calm Calm - N/A   Mostly Cloudy
4:15 AM 69.8 °F 69.8 °F 100% 30.21 in 10.0 mi Calm Calm - N/A   Scattered Clouds
4:35 AM 69.8 °F 69.8 °F 100% 30.20 in 10.0 mi Calm Calm - N/A   Scattered Clouds
4:55 AM 69.8 °F 69.8 °F 100% 30.21 in 9.0 mi Calm Calm - N/A   Mostly Cloudy
5:15 AM 69.8 °F 69.8 °F 100% 30.21 in 10.0 mi Calm Calm - N/A   Mostly Cloudy
5:35 AM 69.8 °F 69.8 °F 100% 30.21 in 6.0 mi Calm Calm - N/A   Scattered Clouds
5:55 AM 68.0 °F 68.0 °F 100% 30.22 in 9.0 mi Calm Calm - N/A   Scattered Clouds
6:15 AM 68.0 °F 68.0 °F 100% 30.23 in 6.0 mi Calm Calm - N/A   Mostly Cloudy
6:55 AM 68.0 °F 68.0 °F 100% 30.23 in 1.5 mi Calm Calm - 0.21 in Rain Heavy Rain
7:15 AM 68.0 °F 68.0 °F 100% 30.23 in 6.0 mi Calm Calm - 0.01 in Rain Light Rain
7:35 AM 68.0 °F 68.0 °F 100% 30.23 in 5.0 mi NNE 3.5 mph - 0.02 in Rain Light Rain
7:55 AM 66.2 °F 66.2 °F 100% 30.24 in 10.0 mi Calm Calm - 0.02 in Rain Light Rain
8:15 AM 66.2 °F 66.2 °F 100% 30.25 in 9.0 mi Calm Calm - N/A   Clear
8:35 AM 66.2 °F 66.2 °F 100% 30.25 in 10.0 mi North 3.5 mph - N/A   Partly Cloudy
8:55 AM 66.2 °F 66.2 °F 100% 30.26 in 9.0 mi Calm Calm - N/A   Clear
9:15 AM 66.2 °F 66.2 °F 100% 30.26 in 9.0 mi Calm Calm - N/A   Partly Cloudy
9:35 AM 68.0 °F 68.0 °F 100% 30.27 in 10.0 mi Calm Calm - N/A   Scattered Clouds
9:55 AM 68.0 °F 68.0 °F 100% 30.27 in 10.0 mi Calm Calm - N/A   Mostly Cloudy
10:15 AM 68.0 °F 68.0 °F 100% 30.27 in 10.0 mi Calm Calm - N/A   Mostly Cloudy
10:35 AM 69.8 °F 68.0 °F 94% 30.27 in 10.0 mi West 3.5 mph - N/A   Overcast
10:55 AM 69.8 °F 69.8 °F 100% 30.28 in 10.0 mi Calm Calm - N/A   Overcast
11:15 AM 69.8 °F 69.8 °F 100% 30.28 in 9.0 mi Calm Calm - N/A Rain Light Rain
11:35 AM 69.8 °F 69.8 °F 100% 30.27 in 7.0 mi Calm Calm - 0.01 in Rain Light Rain
11:55 AM 69.8 °F 69.8 °F 100% 30.27 in 10.0 mi Calm Calm - 0.01 in   Mostly Cloudy
12:15 PM 71.6 °F 71.6 °F 100% 30.27 in 10.0 mi WNW 4.6 mph - N/A   Mostly Cloudy
12:35 PM 71.6 °F 71.6 °F 100% 30.27 in 10.0 mi NW 4.6 mph - N/A   Overcast
12:55 PM 71.6 °F 71.6 °F 100% 30.26 in 10.0 mi Calm Calm - N/A   Overcast
1:15 PM 73.4 °F 69.8 °F 88% 30.25 in 10.0 mi Calm Calm - N/A   Overcast
1:35 PM 73.4 °F 69.8 °F 88% 30.24 in 10.0 mi Calm Calm - N/A   Overcast
1:55 PM 73.4 °F 68.0 °F 83% 30.23 in 10.0 mi Calm Calm - N/A   Mostly Cloudy
2:35 PM 75.2 °F 68.0 °F 78% 30.21 in 10.0 mi Calm Calm - N/A   Mostly Cloudy
2:55 PM 75.2 °F 68.0 °F 78% 30.21 in 10.0 mi NW 4.6 mph - N/A   Overcast
3:15 PM 75.2 °F 68.0 °F 78% 30.20 in 10.0 mi NW 8.1 mph - N/A   Overcast
3:35 PM 75.2 °F 68.0 °F 78% 30.20 in 10.0 mi NW 5.8 mph - N/A   Mostly Cloudy
3:55 PM 75.2 °F 68.0 °F 78% 30.20 in 10.0 mi Calm Calm - N/A   Mostly Cloudy
4:15 PM 77.0 °F 68.0 °F 74% 30.19 in 10.0 mi WNW 5.8 mph - N/A   Scattered Clouds
4:35 PM 77.0 °F 68.0 °F 74% 30.19 in 10.0 mi West 5.8 mph - N/A   Scattered Clouds
4:55 PM 75.2 °F 68.0 °F 78% 30.18 in 10.0 mi NW 4.6 mph - N/A   Partly Cloudy
5:15 PM 77.0 °F 66.2 °F 69% 30.19 in 10.0 mi Calm Calm - N/A   Clear
5:35 PM 77.0 °F 66.2 °F 69% 30.19 in 10.0 mi Calm Calm - N/A   Clear
5:55 PM 77.0 °F 66.2 °F 69% 30.19 in 10.0 mi Calm Calm - N/A   Clear
6:15 PM 77.0 °F 66.2 °F 69% 30.18 in 10.0 mi Calm Calm - N/A   Clear
6:35 PM 75.2 °F 71.6 °F 89% 30.18 in 10.0 mi Calm Calm - N/A   Clear
6:55 PM 73.4 °F 71.6 °F 94% 30.18 in 10.0 mi Calm Calm - N/A   Clear
7:15 PM 71.6 °F 71.6 °F 100% 30.18 in 10.0 mi Calm Calm - N/A   Clear
7:35 PM 69.8 °F 69.8 °F 100% 30.18 in 10.0 mi Calm Calm - N/A   Clear
7:55 PM 68.0 °F 68.0 °F 100% 30.19 in 8.0 mi Calm Calm - N/A   Clear
8:15 PM 68.0 °F 68.0 °F 100% 30.19 in 8.0 mi Calm Calm - N/A   Clear
8:35 PM 68.0 °F 68.0 °F 100% 30.19 in 8.0 mi Calm Calm - N/A   Clear
8:55 PM 68.0 °F 68.0 °F 100% 30.20 in 6.0 mi Calm Calm - N/A   Clear
9:15 PM 68.0 °F 68.0 °F 100% 30.19 in 5.0 mi Calm Calm - N/A   Clear
9:35 PM 66.2 °F 66.2 °F 100% 30.20 in 5.0 mi Calm Calm - N/A   Clear
9:55 PM 66.2 °F 66.2 °F 100% 30.21 in 5.0 mi Calm Calm - N/A   Clear
10:15 PM 66.2 °F 66.2 °F 100% 30.21 in 6.0 mi Calm Calm - N/A   Clear
10:35 PM 66.2 °F 66.2 °F 100% 30.22 in 2.5 mi Calm Calm - N/A   Clear
10:55 PM 66.2 °F 66.2 °F 100% 30.23 in 1.8 mi Calm Calm - N/A   Clear
11:15 PM 66.2 °F 66.2 °F 100% 30.23 in 2.0 mi Calm Calm - N/A   Clear
11:35 PM 64.4 °F 64.4 °F 100% 30.23 in 9.0 mi Calm Calm - N/A   Clear
11:55 PM 64.4 °F 64.4 °F 100% 30.22 in 6.0 mi Calm Calm - N/A   Clear